Altoona, PA

8:29 AM EDT on October 15, 2019 (GMT -0400)
Altoona-Blair County

Weather History for KAOO - August, 2019

Change the Weather History Date:

Tuesday, August 6, 2019

  Actual Average Record
Temperature  
Mean Temperature 73 °F 70 °F  
Max Temperature 84 °F 81 °F 92 °F (1962)
Min Temperature 62 °F 60 °F 45 °F (1957)
Degree Days  
Heating Degree Days 0 0  
Month to date heating degree days 0 0  
Since 1 June heating degree days 38 68  
Since 1 July heating degree days 0 10  
Cooling Degree Days 8 6  
Month to date cooling degree days 46 36  
Year to date cooling degree days 508 363  
Since 1 June cooling degree days 439 330  
Growing Degree Days 24 (Base 50)    
Moisture  
Dew Point 64 °F    
Average Humidity 72    
Maximum Humidity 93    
Minimum Humidity 51    
Precipitation  
Precipitation 0.70 in 0.09 in 1.24 in (1975)
Month to date precipitation 0.75 0.56  
Year to date precipitation 27.65 21.48  
Sea Level Pressure  
Sea Level Pressure 29.87 in    
Wind  
Wind Speed 4 mph (SW)    
Max Wind Speed 18 mph    
Max Gust Speed 24 mph    
Visibility 7 miles    
Events Fog , Rain , Thunderstorm    
T = Trace of Precipitation, MM = Missing Value Source: NWS Daily Summary

Daily Weather History Graph

Daily Weather History Graph

Search for Another Location

Airport or City:

Astronomy

Aug. 06, 2019 Rise Set
Actual Time 6:15 AM EDT 8:22 PM EDT
Civil Twilight 5:45 AM EDT 8:52 PM EDT
Nautical Twilight 5:08 AM EDT 9:28 PM EDT
Astronomical Twilight 4:28 AM EDT 10:08 PM EDT
Moon 12:39 PM EDT (8/6) No Moon Set
Length of Visible Light 15h 06m
Length of Day
14h 06m
Waxing Crescent, 38% of the Moon is Illuminated
Aug 6
Waxing Crescent
Aug 7
First Quarter
Aug 15
Full
Aug 23
Last Quarter
Aug 30
New

Hourly Weather History & Observations

Time (EDT) Temp. Heat Index Dew Point Humidity Pressure Visibility Wind Dir Wind Speed Gust Speed Precip Events Conditions
12:53 AM 64.9 °F - 63.0 °F 93% 29.93 in 4.0 mi Calm Calm - N/A   Clear
1:53 AM 66.0 °F - 63.0 °F 90% 29.92 in 8.0 mi Calm Calm - N/A   Clear
2:53 AM 64.9 °F - 63.0 °F 93% 29.91 in 5.0 mi Calm Calm - N/A   Clear
3:53 AM 66.0 °F - 63.0 °F 90% 29.91 in 5.0 mi Calm Calm - N/A   Clear
4:53 AM 64.0 °F - 61.0 °F 90% 29.90 in 4.0 mi Calm Calm - N/A   Clear
5:15 AM 63.0 °F - 61.0 °F 93% 29.92 in 2.0 mi Calm Calm - N/A   Clear
5:33 AM 63.0 °F - 60.1 °F 90% 29.92 in 5.0 mi WNW 3.5 mph - N/A   Clear
5:53 AM 63.0 °F - 61.0 °F 93% 29.90 in 4.0 mi Calm Calm - N/A   Clear
6:19 AM 63.0 °F - 60.1 °F 90% 29.93 in 2.5 mi Calm Calm - N/A   Clear
6:41 AM 64.9 °F - 62.1 °F 90% 29.93 in 5.0 mi Calm Calm - N/A   Scattered Clouds
6:53 AM 63.0 °F - 61.0 °F 93% 29.90 in 4.0 mi Calm Calm - N/A   Scattered Clouds
7:53 AM 68.0 °F - 64.9 °F 90% 29.91 in 5.0 mi Calm Calm - N/A   Clear
8:53 AM 73.0 °F - 64.9 °F 76% 29.91 in 10.0 mi SSW 3.5 mph - N/A   Clear
9:53 AM 77.0 °F - 66.0 °F 69% 29.90 in 10.0 mi West 4.6 mph - N/A   Mostly Cloudy
10:53 AM 79.0 °F - 64.9 °F 62% 29.90 in 10.0 mi West 5.8 mph - N/A   Mostly Cloudy
11:53 AM 81.0 °F 82.7 °F 64.9 °F 58% 29.89 in 10.0 mi West 5.8 mph - N/A   Clear
12:53 PM 82.9 °F 84.6 °F 64.9 °F 54% 29.87 in 10.0 mi WSW 8.1 mph - N/A   Partly Cloudy
1:29 PM 80.1 °F 81.7 °F 64.0 °F 58% 29.89 in 10.0 mi WSW 12.7 mph 17.3 mph N/A Thunderstorm Mostly Cloudy
1:53 PM 73.9 °F - 64.0 °F 71% 29.87 in 10.0 mi North 8.1 mph - 0.03 in Rain , Thunderstorm Light Thunderstorms and Rain
2:53 PM 80.1 °F 81.7 °F 64.0 °F 58% 29.83 in 10.0 mi SSW 9.2 mph - 0.00 in   Clear
3:53 PM 82.9 °F 84.4 °F 64.0 °F 53% 29.81 in 10.0 mi SSW 8.1 mph - N/A   Clear
4:53 PM 84.0 °F 85.4 °F 64.0 °F 51% 29.80 in 10.0 mi South 10.4 mph - N/A   Clear
5:53 PM 82.9 °F 85.0 °F 66.0 °F 56% 29.80 in 10.0 mi South 9.2 mph - N/A   Clear
6:53 PM 81.0 °F 83.0 °F 66.0 °F 60% 29.80 in 10.0 mi South 6.9 mph - N/A   Scattered Clouds
7:53 PM 78.1 °F - 64.9 °F 64% 29.80 in 10.0 mi South 5.8 mph - N/A   Mostly Cloudy
8:00 PM 78.1 °F - 64.0 °F 62% 29.83 in 10.0 mi South 5.8 mph - N/A Thunderstorm Mostly Cloudy
8:15 PM 77.0 °F - 64.0 °F 64% 29.83 in 10.0 mi SSW 4.6 mph - N/A   Scattered Clouds
8:53 PM 75.0 °F - 64.9 °F 71% 29.80 in 10.0 mi WNW 4.6 mph - N/A   Clear
9:53 PM 71.1 °F - 64.9 °F 81% 29.82 in 10.0 mi Calm Calm - N/A   Clear
10:53 PM 70.0 °F - 64.9 °F 84% 29.83 in 9.0 mi East 3.5 mph - N/A   Mostly Cloudy
11:21 PM 70.0 °F - 66.0 °F 87% 29.86 in 9.0 mi East 3.5 mph - 0.00 in Thunderstorm Thunderstorm
11:33 PM 70.0 °F - 64.9 °F 84% 29.90 in 1.5 mi WSW 16.1 mph 24.2 mph 0.27 in Rain , Thunderstorm Heavy Thunderstorms and Rain
11:38 PM 68.0 °F - 64.9 °F 90% 29.88 in 0.5 mi North 10.4 mph 24.2 mph 0.65 in Fog , Rain , Thunderstorm Heavy Thunderstorms and Rain
11:46 PM 66.9 °F - 64.9 °F 93% 29.87 in 1.2 mi North 5.8 mph - 0.67 in Rain , Thunderstorm Light Thunderstorms and Rain
11:48 PM 66.2 °F - 64.4 °F 94% 29.87 in 2.5 mi North 4.6 mph - 0.67 in Rain , Thunderstorm Light Thunderstorms and Rain
11:53 PM 66.9 °F - 64.9 °F 93% 29.83 in 6.0 mi North 3.5 mph - 0.67 in Rain , Thunderstorm Light Thunderstorms and Rain